Wetterdaten: Freitag, 12.07.2013
Datum Zeit Temperatur Luftfeuchte Luftdruck Regen Wind Richtung Richtung Taupunkt Windchill Windben
12.07.2013 00:00 10,3 C 80 % 1022,2 hPa 0,0 l/m 0,0 km/h (0 Bft) NO 45 7,0 C 9,4 C 0,0 km/h (0 Bft)
12.07.2013 00:05 10,2 C 80 % 1022,3 hPa 0,0 l/m 0,0 km/h (0 Bft) O-NO 67 6,9 C 9,1 C 0,0 km/h (0 Bft)
12.07.2013 00:10 10,2 C 81 % 1022,3 hPa 0,0 l/m 0,0 km/h (0 Bft) O 90 7,1 C 8,9 C 0,0 km/h (0 Bft)
12.07.2013 00:15 10,2 C 81 % 1022,3 hPa 0,0 l/m 0,0 km/h (0 Bft) O 90 7,1 C 8,8 C 0,0 km/h (0 Bft)
12.07.2013 00:20 10,0 C 82 % 1022,3 hPa 0,0 l/m 0,0 km/h (0 Bft) O 90 7,1 C 8,7 C 0,0 km/h (0 Bft)
12.07.2013 00:25 9,9 C 82 % 1022,5 hPa 0,0 l/m 0,0 km/h (0 Bft) O 90 7,0 C 8,6 C 0,0 km/h (0 Bft)
12.07.2013 00:30 9,9 C 83 % 1022,5 hPa 0,0 l/m 0,0 km/h (0 Bft) O 90 7,2 C 8,5 C 0,0 km/h (0 Bft)
12.07.2013 00:35 9,8 C 83 % 1022,5 hPa 0,0 l/m 0,0 km/h (0 Bft) O 90 7,1 C 8,5 C 0,0 km/h (0 Bft)
12.07.2013 00:40 9,3 C 83 % 1022,5 hPa 0,0 l/m 0,0 km/h (0 Bft) O 90 6,6 C 8,3 C 0,0 km/h (0 Bft)
12.07.2013 00:45 9,3 C 83 % 1022,5 hPa 0,0 l/m 0,0 km/h (0 Bft) O 90 6,6 C 8,2 C 0,0 km/h (0 Bft)
12.07.2013 00:50 9,0 C 83 % 1022,5 hPa 0,0 l/m 0,0 km/h (0 Bft) O-NO 67 6,3 C 8,2 C 0,0 km/h (0 Bft)
12.07.2013 00:55 9,2 C 84 % 1022,5 hPa 0,0 l/m 0,0 km/h (0 Bft) O 90 6,6 C 8,1 C 0,0 km/h (0 Bft)
12.07.2013 01:00 8,8 C 84 % 1022,5 hPa 0,0 l/m 0,0 km/h (0 Bft) N 360 6,2 C 8,0 C 0,0 km/h (0 Bft)
12.07.2013 01:05 8,7 C 84 % 1022,4 hPa 0,0 l/m 0,0 km/h (0 Bft) NO 45 6,2 C 7,8 C 0,0 km/h (0 Bft)
12.07.2013 01:10 8,9 C 85 % 1022,4 hPa 0,0 l/m 0,0 km/h (0 Bft) O-NO 67 6,5 C 7,9 C 0,0 km/h (0 Bft)
12.07.2013 01:15 9,1 C 85 % 1022,4 hPa 0,0 l/m 0,0 km/h (0 Bft) O-NO 67 6,7 C 7,9 C 0,0 km/h (0 Bft)
12.07.2013 01:20 8,8 C 85 % 1022,4 hPa 0,0 l/m 0,0 km/h (0 Bft) O-NO 67 6,4 C 7,9 C 0,0 km/h (0 Bft)
12.07.2013 01:25 8,8 C 86 % 1022,2 hPa 0,0 l/m 0,0 km/h (0 Bft) O-NO 67 6,6 C 7,7 C 0,0 km/h (0 Bft)
12.07.2013 01:30 8,3 C 85 % 1022,2 hPa 0,0 l/m 0,0 km/h (0 Bft) O-NO 67 5,9 C 7,5 C 0,0 km/h (0 Bft)
12.07.2013 01:35 8,4 C 86 % 1022,2 hPa 0,0 l/m 0,0 km/h (0 Bft) O-NO 67 6,2 C 7,3 C 0,0 km/h (0 Bft)
12.07.2013 01:40 8,7 C 87 % 1022,2 hPa 0,0 l/m 0,0 km/h (0 Bft) O 90 6,7 C 7,3 C 0,0 km/h (0 Bft)
12.07.2013 01:45 8,6 C 87 % 1022,2 hPa 0,0 l/m 0,0 km/h (0 Bft) O 90 6,6 C 7,3 C 0,0 km/h (0 Bft)
12.07.2013 01:50 8,6 C 87 % 1022,2 hPa 0,0 l/m 0,2 km/h (0 Bft) O 90 6,6 C 7,4 C 1,9 km/h (1 Bft)
12.07.2013 01:55 8,6 C 87 % 1022,2 hPa 0,0 l/m 0,3 km/h (0 Bft) O-NO 67 6,6 C 7,6 C 1,6 km/h (1 Bft)
12.07.2013 02:00 8,5 C 87 % 1022,2 hPa 0,0 l/m 0,5 km/h (0 Bft) O 90 6,5 C 7,6 C 2,3 km/h (1 Bft)
12.07.2013 02:05 8,6 C 87 % 1022,0 hPa 0,0 l/m 0,8 km/h (0 Bft) O-NO 67 6,6 C 7,6 C 3,2 km/h (1 Bft)
12.07.2013 02:10 8,6 C 88 % 1022,0 hPa 0,0 l/m 1,4 km/h (1 Bft) O-SO 112 6,7 C 7,6 C 3,7 km/h (1 Bft)
12.07.2013 02:15 8,4 C 88 % 1022,0 hPa 0,0 l/m 1,9 km/h (1 Bft) O-SO 112 6,5 C 7,6 C 2,6 km/h (1 Bft)
12.07.2013 02:20 8,4 C 88 % 1022,0 hPa 0,0 l/m 2,1 km/h (1 Bft) O 90 6,5 C 7,6 C 2,4 km/h (1 Bft)
12.07.2013 02:25 8,4 C 88 % 1022,0 hPa 0,0 l/m 2,3 km/h (1 Bft) O-SO 112 6,5 C 7,6 C 0,0 km/h (0 Bft)
12.07.2013 02:30 8,3 C 88 % 1022,0 hPa 0,0 l/m 1,6 km/h (1 Bft) O 90 6,4 C 7,6 C 1,9 km/h (1 Bft)
12.07.2013 02:35 8,3 C 89 % 1022,0 hPa 0,0 l/m 1,1 km/h (1 Bft) O-SO 112 6,6 C 7,5 C 1,8 km/h (1 Bft)
12.07.2013 02:40 7,9 C 89 % 1022,0 hPa 0,0 l/m 0,6 km/h (0 Bft) O 90 6,2 C 7,3 C 0,0 km/h (0 Bft)
12.07.2013 02:45 7,8 C 88 % 1021,8 hPa 0,0 l/m 0,0 km/h (0 Bft) O-NO 67 5,9 C 7,2 C 0,0 km/h (0 Bft)
12.07.2013 02:50 7,7 C 89 % 1021,8 hPa 0,0 l/m 0,0 km/h (0 Bft) O 90 6,0 C 6,9 C 0,0 km/h (0 Bft)
12.07.2013 02:55 7,4 C 88 % 1021,8 hPa 0,0 l/m 0,0 km/h (0 Bft) NO 45 5,5 C 6,9 C 0,0 km/h (0 Bft)
12.07.2013 03:00 7,5 C 89 % 1021,8 hPa 0,0 l/m 0,0 km/h (0 Bft) O 90 5,8 C 6,7 C 0,0 km/h (0 Bft)
12.07.2013 03:05 7,5 C 89 % 1021,9 hPa 0,0 l/m 0,0 km/h (0 Bft) NO 45 5,8 C 6,7 C 0,0 km/h (0 Bft)
12.07.2013 03:10 7,5 C 89 % 1021,9 hPa 0,0 l/m 0,0 km/h (0 Bft) O 90 5,8 C 6,7 C 0,0 km/h (0 Bft)
12.07.2013 03:15 7,5 C 89 % 1021,9 hPa 0,0 l/m 0,0 km/h (0 Bft) NO 45 5,8 C 6,7 C 0,0 km/h (0 Bft)
12.07.2013 03:20 7,3 C 89 % 1021,9 hPa 0,0 l/m 0,0 km/h (0 Bft) NO 45 5,6 C 6,7 C 0,0 km/h (0 Bft)
12.07.2013 03:25 7,4 C 89 % 1021,9 hPa 0,0 l/m 0,0 km/h (0 Bft) NO 45 5,7 C 6,7 C 0,0 km/h (0 Bft)
12.07.2013 03:30 7,3 C 89 % 1021,9 hPa 0,0 l/m 0,0 km/h (0 Bft) O-NO 67 5,6 C 6,8 C 0,0 km/h (0 Bft)
12.07.2013 03:35 7,2 C 89 % 1021,9 hPa 0,0 l/m 0,2 km/h (0 Bft) O-NO 67 5,5 C 6,9 C 0,0 km/h (0 Bft)
12.07.2013 03:40 7,1 C 89 % 1021,9 hPa 0,0 l/m 0,0 km/h (0 Bft) O-NO 67 5,4 C 6,7 C 0,0 km/h (0 Bft)
12.07.2013 03:45 7,0 C 89 % 1021,8 hPa 0,0 l/m 0,0 km/h (0 Bft) O-NO 67 5,3 C 6,7 C 0,0 km/h (0 Bft)
12.07.2013 03:50 7,1 C 89 % 1021,8 hPa 0,0 l/m 0,0 km/h (0 Bft) NO 45 5,4 C 6,7 C 0,0 km/h (0 Bft)
12.07.2013 03:55 7,3 C 89 % 1021,8 hPa 0,0 l/m 0,0 km/h (0 Bft) N-NO 22 5,6 C 6,7 C 0,0 km/h (0 Bft)
12.07.2013 04:00 7,2 C 90 % 1021,8 hPa 0,0 l/m 0,0 km/h (0 Bft) N-NO 22 5,7 C 6,8 C 0,0 km/h (0 Bft)
12.07.2013 04:05 7,2 C 90 % 1021,6 hPa 0,0 l/m 0,0 km/h (0 Bft) NO 45 5,7 C 6,8 C 0,0 km/h (0 Bft)
12.07.2013 04:10 7,2 C 90 % 1021,6 hPa 0,0 l/m 0,0 km/h (0 Bft) NO 45 5,7 C 6,9 C 0,0 km/h (0 Bft)
12.07.2013 04:15 7,3 C 90 % 1021,6 hPa 0,0 l/m 0,0 km/h (0 Bft) NO 45 5,8 C 7,0 C 0,0 km/h (0 Bft)
12.07.2013 04:20 7,6 C 90 % 1021,6 hPa 0,0 l/m 0,0 km/h (0 Bft) N-NO 22 6,1 C 7,1 C 0,0 km/h (0 Bft)
12.07.2013 04:25 7,5 C 90 % 1021,6 hPa 0,0 l/m 0,0 km/h (0 Bft) W-NW 292 6,0 C 7,1 C 0,0 km/h (0 Bft)
12.07.2013 04:30 7,5 C 90 % 1021,6 hPa 0,0 l/m 0,0 km/h (0 Bft) W-NW 292 6,0 C 7,1 C 0,0 km/h (0 Bft)
12.07.2013 04:35 7,5 C 90 % 1021,6 hPa 0,0 l/m 0,0 km/h (0 Bft) W 270 6,0 C 7,1 C 0,0 km/h (0 Bft)
12.07.2013 04:40 7,7 C 90 % 1021,6 hPa 0,0 l/m 0,0 km/h (0 Bft) W-NW 292 6,2 C 7,3 C 0,0 km/h (0 Bft)
12.07.2013 04:45 7,8 C 90 % 1021,5 hPa 0,0 l/m 0,0 km/h (0 Bft) W-NW 292 6,3 C 7,3 C 0,0 km/h (0 Bft)
12.07.2013 04:50 7,9 C 90 % 1021,5 hPa 0,0 l/m 0,0 km/h (0 Bft) W-NW 292 6,4 C 7,5 C 0,0 km/h (0 Bft)
12.07.2013 04:55 7,9 C 90 % 1021,5 hPa 0,0 l/m 0,0 km/h (0 Bft) N 360 6,4 C 7,5 C 0,0 km/h (0 Bft)
12.07.2013 05:00 7,7 C 90 % 1021,5 hPa 0,0 l/m 0,0 km/h (0 Bft) N-NO 22 6,2 C 7,3 C 0,0 km/h (0 Bft)
12.07.2013 05:05 7,6 C 90 % 1021,8 hPa 0,0 l/m 0,0 km/h (0 Bft) N-NO 22 6,1 C 7,3 C 0,0 km/h (0 Bft)
12.07.2013 05:10 7,9 C 90 % 1021,8 hPa 0,0 l/m 0,0 km/h (0 Bft) N-NO 22 6,4 C 7,4 C 0,0 km/h (0 Bft)
12.07.2013 05:15 8,2 C 90 % 1021,8 hPa 0,0 l/m 0,0 km/h (0 Bft) N-NO 22 6,7 C 7,6 C 0,0 km/h (0 Bft)
12.07.2013 05:20 8,3 C 90 % 1021,8 hPa 0,0 l/m 0,0 km/h (0 Bft) N 360 6,8 C 7,9 C 0,0 km/h (0 Bft)
12.07.2013 05:25 8,5 C 90 % 1021,8 hPa 0,0 l/m 0,0 km/h (0 Bft) W-NW 292 7,0 C 8,0 C 0,0 km/h (0 Bft)
12.07.2013 05:30 8,5 C 90 % 1021,8 hPa 0,0 l/m 0,0 km/h (0 Bft) W-NW 292 7,0 C 8,1 C 0,0 km/h (0 Bft)
12.07.2013 05:35 8,6 C 90 % 1021,8 hPa 0,0 l/m 0,0 km/h (0 Bft) W-NW 292 7,1 C 8,1 C 0,0 km/h (0 Bft)
12.07.2013 05:40 8,4 C 90 % 1021,8 hPa 0,0 l/m 0,0 km/h (0 Bft) N-NW 337 6,9 C 8,1 C 0,0 km/h (0 Bft)
12.07.2013 05:45 8,4 C 90 % 1021,8 hPa 0,0 l/m 0,0 km/h (0 Bft) N 360 6,9 C 8,0 C 0,0 km/h (0 Bft)
12.07.2013 05:50 8,5 C 90 % 1021,8 hPa 0,0 l/m 0,0 km/h (0 Bft) NW 315 7,0 C 8,1 C 0,0 km/h (0 Bft)
12.07.2013 05:55 8,5 C 90 % 1021,8 hPa 0,0 l/m 0,0 km/h (0 Bft) W-NW 292 7,0 C 8,1 C 0,0 km/h (0 Bft)
12.07.2013 06:00 8,5 C 90 % 1021,8 hPa 0,0 l/m 0,0 km/h (0 Bft) N 360 7,0 C 8,1 C 0,0 km/h (0 Bft)
12.07.2013 06:05 8,5 C 90 % 1021,9 hPa 0,0 l/m 0,0 km/h (0 Bft) N 360 7,0 C 8,2 C 0,0 km/h (0 Bft)
12.07.2013 06:10 8,5 C 90 % 1021,9 hPa 0,0 l/m 0,0 km/h (0 Bft) N-NW 337 7,0 C 8,2 C 0,0 km/h (0 Bft)
12.07.2013 06:15 8,5 C 90 % 1021,9 hPa 0,0 l/m 0,2 km/h (0 Bft) O 90 7,0 C 8,2 C 2,1 km/h (1 Bft)
12.07.2013 06:20 8,7 C 90 % 1021,9 hPa 0,0 l/m 0,8 km/h (0 Bft) O-SO 112 7,2 C 8,4 C 5,3 km/h (1 Bft)
12.07.2013 06:25 9,5 C 90 % 1021,8 hPa 0,0 l/m 0,8 km/h (0 Bft) O-SO 112 7,9 C 8,6 C 0,0 km/h (0 Bft)
12.07.2013 06:30 10,7 C 89 % 1021,8 hPa 0,0 l/m 0,0 km/h (0 Bft) O-SO 112 9,0 C 9,4 C 0,0 km/h (0 Bft)
12.07.2013 06:35 11,8 C 89 % 1021,8 hPa 0,0 l/m 0,0 km/h (0 Bft) O-SO 112 10,0 C 10,0 C 0,0 km/h (0 Bft)
12.07.2013 06:40 12,3 C 87 % 1021,8 hPa 0,0 l/m 0,0 km/h (0 Bft) O-SO 112 10,2 C 11,0 C 0,0 km/h (0 Bft)
12.07.2013 06:45 12,7 C 86 % 1021,6 hPa 0,0 l/m 0,0 km/h (0 Bft) SO 135 10,4 C 11,5 C 0,0 km/h (0 Bft)
12.07.2013 06:50 11,9 C 83 % 1021,6 hPa 0,0 l/m 0,0 km/h (0 Bft) SO 135 9,1 C 11,8 C 0,0 km/h (0 Bft)
12.07.2013 06:55 11,4 C 83 % 1021,6 hPa 0,0 l/m 0,0 km/h (0 Bft) SO 135 8,6 C 11,2 C 0,0 km/h (0 Bft)
12.07.2013 07:00 11,0 C 83 % 1021,6 hPa 0,0 l/m 0,0 km/h (0 Bft) O-SO 112 8,2 C 10,8 C 0,0 km/h (0 Bft)
12.07.2013 07:05 11,0 C 83 % 1021,8 hPa 0,0 l/m 0,0 km/h (0 Bft) O-SO 112 8,2 C 10,7 C 0,0 km/h (0 Bft)
12.07.2013 07:10 11,0 C 83 % 1021,8 hPa 0,0 l/m 0,0 km/h (0 Bft) NO 45 8,2 C 10,7 C 0,0 km/h (0 Bft)
12.07.2013 07:15 11,2 C 83 % 1021,8 hPa 0,0 l/m 0,0 km/h (0 Bft) NO 45 8,4 C 10,7 C 0,0 km/h (0 Bft)
12.07.2013 07:20 11,6 C 83 % 1021,8 hPa 0,0 l/m 0,0 km/h (0 Bft) O-NO 67 8,8 C 10,9 C 0,0 km/h (0 Bft)
12.07.2013 07:25 11,9 C 83 % 1021,8 hPa 0,0 l/m 0,0 km/h (0 Bft) NO 45 9,1 C 11,1 C 0,0 km/h (0 Bft)
12.07.2013 07:30 13,7 C 81 % 1021,8 hPa 0,0 l/m 0,0 km/h (0 Bft) SO 135 10,5 C 11,8 C 0,0 km/h (0 Bft)
12.07.2013 07:35 14,0 C 78 % 1021,8 hPa 0,0 l/m 0,0 km/h (0 Bft) SO 135 10,2 C 12,7 C 0,0 km/h (0 Bft)
12.07.2013 07:40 16,3 C 74 % 1021,8 hPa 0,0 l/m 0,0 km/h (0 Bft) W-SW 247 11,7 C 14,0 C 0,0 km/h (0 Bft)
12.07.2013 07:45 17,7 C 73 % 1021,6 hPa 0,0 l/m 0,0 km/h (0 Bft) W-SW 247 12,8 C 15,3 C 0,0 km/h (0 Bft)
12.07.2013 07:50 18,4 C 69 % 1021,6 hPa 0,0 l/m 0,0 km/h (0 Bft) W-SW 247 12,6 C 16,5 C 0,0 km/h (0 Bft)
12.07.2013 07:55 18,9 C 66 % 1021,6 hPa 0,0 l/m 0,0 km/h (0 Bft) W 270 12,4 C 17,3 C 0,0 km/h (0 Bft)
12.07.2013 08:00 18,9 C 63 % 1021,6 hPa 0,0 l/m 0,8 km/h (0 Bft) W 270 11,7 C 17,6 C 2,9 km/h (1 Bft)
12.07.2013 08:05 19,1 C 61 % 1021,8 hPa 0,0 l/m 1,4 km/h (1 Bft) W 270 11,4 C 17,5 C 1,8 km/h (1 Bft)
12.07.2013 08:10 18,6 C 58 % 1021,8 hPa 0,0 l/m 1,6 km/h (1 Bft) W-NW 292 10,2 C 18,1 C 1,9 km/h (1 Bft)
12.07.2013 08:15 19,8 C 58 % 1021,8 hPa 0,0 l/m 1,3 km/h (1 Bft) W-NW 292 11,3 C 18,3 C 3,2 km/h (1 Bft)
12.07.2013 08:20 19,6 C 55 % 1021,8 hPa 0,0 l/m 2,6 km/h (1 Bft) W 270 10,3 C 18,4 C 4,5 km/h (1 Bft)
12.07.2013 08:25 19,7 C 55 % 1021,9 hPa 0,0 l/m 3,1 km/h (1 Bft) NW 315 10,4 C 18,4 C 2,7 km/h (1 Bft)
12.07.2013 08:30 19,9 C 54 % 1021,9 hPa 0,0 l/m 2,4 km/h (1 Bft) N 360 10,3 C 18,9 C 3,2 km/h (1 Bft)
12.07.2013 08:35 19,8 C 54 % 1021,9 hPa 0,0 l/m 1,8 km/h (1 Bft) N-NW 337 10,2 C 19,4 C 2,4 km/h (1 Bft)
12.07.2013 08:40 20,2 C 54 % 1021,9 hPa 0,0 l/m 1,6 km/h (1 Bft) W 270 10,6 C 19,8 C 1,6 km/h (1 Bft)
12.07.2013 08:45 20,0 C 52 % 1022,0 hPa 0,0 l/m 2,6 km/h (1 Bft) W 270 9,8 C 20,0 C 3,1 km/h (1 Bft)
12.07.2013 08:50 21,0 C 51 % 1022,0 hPa 0,0 l/m 2,6 km/h (1 Bft) W-NW 292 10,5 C 20,1 C 7,4 km/h (2 Bft)
12.07.2013 08:55 21,2 C 49 % 1022,0 hPa 0,0 l/m 2,6 km/h (1 Bft) W 270 10,1 C 20,1 C 5,8 km/h (2 Bft)
12.07.2013 09:00 20,6 C 50 % 1022,0 hPa 0,0 l/m 3,7 km/h (1 Bft) W-NW 292 9,8 C 20,0 C 4,3 km/h (1 Bft)
12.07.2013 09:05 20,3 C 49 % 1022,3 hPa 0,0 l/m 4,2 km/h (1 Bft) N-NW 337 9,2 C 19,7 C 3,7 km/h (1 Bft)
12.07.2013 09:10 21,0 C 49 % 1022,3 hPa 0,0 l/m 3,7 km/h (1 Bft) N 360 9,9 C 19,9 C 4,2 km/h (1 Bft)
12.07.2013 09:15 20,7 C 49 % 1022,3 hPa 0,0 l/m 3,4 km/h (1 Bft) N-NO 22 9,6 C 20,3 C 4,0 km/h (1 Bft)
12.07.2013 09:20 21,1 C 49 % 1022,3 hPa 0,0 l/m 4,0 km/h (1 Bft) N 360 10,0 C 20,4 C 7,7 km/h (2 Bft)
12.07.2013 09:25 21,4 C 48 % 1022,6 hPa 0,0 l/m 3,9 km/h (1 Bft) W-NW 292 9,9 C 20,4 C 2,3 km/h (1 Bft)
12.07.2013 09:30 21,0 C 49 % 1022,6 hPa 0,0 l/m 3,7 km/h (1 Bft) W-NW 292 9,9 C 20,6 C 5,5 km/h (1 Bft)
12.07.2013 09:35 20,8 C 47 % 1022,6 hPa 0,0 l/m 3,7 km/h (1 Bft) NW 315 9,1 C 20,7 C 4,0 km/h (1 Bft)
12.07.2013 09:40 20,3 C 48 % 1022,6 hPa 0,0 l/m 4,0 km/h (1 Bft) N 360 8,9 C 20,7 C 9,2 km/h (2 Bft)
12.07.2013 09:45 20,4 C 48 % 1023,0 hPa 0,0 l/m 4,7 km/h (1 Bft) NO 45 9,0 C 20,6 C 3,9 km/h (1 Bft)
12.07.2013 09:50 20,8 C 47 % 1023,0 hPa 0,0 l/m 4,5 km/h (1 Bft) O 90 9,1 C 20,7 C 10,1 km/h (2 Bft)
12.07.2013 09:55 20,5 C 46 % 1023,0 hPa 0,0 l/m 5,0 km/h (1 Bft) W-SW 247 8,5 C 20,5 C 4,2 km/h (1 Bft)
12.07.2013 10:00 20,6 C 48 % 1023,0 hPa 0,0 l/m 5,1 km/h (1 Bft) O-NO 67 9,2 C 20,6 C 11,7 km/h (2 Bft)
12.07.2013 10:05 20,1 C 46 % 1023,1 hPa 0,0 l/m 5,0 km/h (1 Bft) N 360 8,1 C 20,8 C 6,9 km/h (2 Bft)
12.07.2013 10:10 20,2 C 46 % 1023,1 hPa 0,0 l/m 6,1 km/h (2 Bft) N 360 8,2 C 20,4 C 15,1 km/h (3 Bft)
12.07.2013 10:15 19,9 C 45 % 1023,1 hPa 0,0 l/m 6,9 km/h (2 Bft) N 360 7,6 C 20,1 C 10,8 km/h (2 Bft)
12.07.2013 10:20 19,9 C 47 % 1023,1 hPa 0,0 l/m 6,3 km/h (2 Bft) W-NW 292 8,3 C 20,3 C 7,9 km/h (2 Bft)
12.07.2013 10:25 19,9 C 46 % 1023,1 hPa 0,0 l/m 6,8 km/h (2 Bft) N 360 7,9 C 20,1 C 7,6 km/h (2 Bft)
12.07.2013 10:30 20,1 C 45 % 1023,1 hPa 0,0 l/m 6,3 km/h (2 Bft) NW 315 7,8 C 20,6 C 11,4 km/h (2 Bft)
12.07.2013 10:35 20,0 C 46 % 1023,1 hPa 0,0 l/m 5,1 km/h (1 Bft) O-SO 112 8,0 C 20,8 C 2,9 km/h (1 Bft)
12.07.2013 10:40 20,5 C 46 % 1023,1 hPa 0,0 l/m 4,3 km/h (1 Bft) N 360 8,5 C 21,1 C 3,2 km/h (1 Bft)
12.07.2013 10:45 20,3 C 44 % 1023,1 hPa 0,0 l/m 5,0 km/h (1 Bft) N-NW 337 7,6 C 21,4 C 10,0 km/h (2 Bft)
12.07.2013 10:50 20,7 C 44 % 1023,1 hPa 0,0 l/m 6,0 km/h (2 Bft) N-NO 22 8,0 C 21,2 C 10,6 km/h (2 Bft)
12.07.2013 10:55 20,4 C 43 % 1023,1 hPa 0,0 l/m 6,1 km/h (2 Bft) N 360 7,4 C 21,3 C 9,0 km/h (2 Bft)
12.07.2013 11:00 20,8 C 45 % 1023,1 hPa 0,0 l/m 5,6 km/h (1 Bft) W-NW 292 8,4 C 21,4 C 7,2 km/h (2 Bft)
12.07.2013 11:05 20,9 C 46 % 1023,2 hPa 0,0 l/m 5,3 km/h (1 Bft) N-NO 22 8,8 C 21,5 C 4,3 km/h (1 Bft)
12.07.2013 11:10 20,7 C 43 % 1023,2 hPa 0,0 l/m 5,3 km/h (1 Bft) W 270 7,7 C 21,6 C 6,1 km/h (2 Bft)
12.07.2013 11:15 21,4 C 43 % 1023,2 hPa 0,0 l/m 4,5 km/h (1 Bft) W-NW 292 8,3 C 21,8 C 8,4 km/h (2 Bft)
12.07.2013 11:20 20,9 C 43 % 1023,2 hPa 0,0 l/m 5,6 km/h (1 Bft) NW 315 7,8 C 21,6 C 9,5 km/h (2 Bft)
12.07.2013 11:25 21,0 C 43 % 1023,3 hPa 0,0 l/m 6,6 km/h (2 Bft) N-NW 337 7,9 C 21,2 C 4,7 km/h (1 Bft)
12.07.2013 11:30 21,5 C 44 % 1023,3 hPa 0,0 l/m 6,1 km/h (2 Bft) W-NW 292 8,7 C 21,5 C 6,8 km/h (2 Bft)
12.07.2013 11:35 22,3 C 44 % 1023,3 hPa 0,0 l/m 5,0 km/h (1 Bft) S-SO 157 9,5 C 21,7 C 5,3 km/h (1 Bft)
12.07.2013 11:40 21,6 C 42 % 1023,3 hPa 0,0 l/m 4,8 km/h (1 Bft) N-NW 337 8,1 C 22,1 C 6,1 km/h (2 Bft)
12.07.2013 11:45 21,9 C 46 % 1023,4 hPa 0,0 l/m 5,0 km/h (1 Bft) W 270 9,7 C 22,2 C 6,8 km/h (2 Bft)
12.07.2013 11:50 22,6 C 42 % 1023,4 hPa 0,0 l/m 5,6 km/h (1 Bft) W-NW 292 9,0 C 22,3 C 5,0 km/h (1 Bft)
12.07.2013 11:55 22,6 C 43 % 1023,4 hPa 0,0 l/m 5,8 km/h (2 Bft) NW 315 9,4 C 22,3 C 8,4 km/h (2 Bft)
12.07.2013 12:00 22,5 C 43 % 1023,4 hPa 0,0 l/m 5,8 km/h (2 Bft) N-NW 337 9,3 C 22,7 C 6,0 km/h (2 Bft)
12.07.2013 12:05 22,4 C 43 % 1023,6 hPa 0,0 l/m 5,6 km/h (1 Bft) N 360 9,2 C 23,2 C 6,9 km/h (2 Bft)
12.07.2013 12:10 22,4 C 44 % 1023,6 hPa 0,0 l/m 5,0 km/h (1 Bft) W 270 9,5 C 23,5 C 4,3 km/h (1 Bft)
12.07.2013 12:15 22,4 C 43 % 1023,6 hPa 0,0 l/m 4,8 km/h (1 Bft) W-NW 292 9,2 C 23,6 C 5,3 km/h (1 Bft)
12.07.2013 12:20 21,0 C 46 % 1023,6 hPa 0,0 l/m 4,3 km/h (1 Bft) W 270 8,9 C 23,2 C 2,7 km/h (1 Bft)
12.07.2013 12:25 21,7 C 47 % 1023,6 hPa 0,0 l/m 4,0 km/h (1 Bft) N 360 9,9 C 22,7 C 3,9 km/h (1 Bft)
12.07.2013 12:30 22,4 C 43 % 1023,6 hPa 0,0 l/m 3,9 km/h (1 Bft) NO 45 9,2 C 23,1 C 0,0 km/h (0 Bft)
12.07.2013 12:35 21,8 C 45 % 1023,6 hPa 0,0 l/m 4,7 km/h (1 Bft) W-NW 292 9,3 C 23,5 C 11,9 km/h (2 Bft)
12.07.2013 12:40 21,5 C 46 % 1023,6 hPa 0,0 l/m 5,3 km/h (1 Bft) W-SW 247 9,4 C 22,6 C 6,0 km/h (2 Bft)
12.07.2013 12:45 22,3 C 46 % 1023,6 hPa 0,0 l/m 5,5 km/h (1 Bft) N-NW 337 10,1 C 22,8 C 5,0 km/h (1 Bft)
12.07.2013 12:50 22,0 C 45 % 1023,6 hPa 0,0 l/m 5,1 km/h (1 Bft) O 90 9,5 C 23,2 C 5,0 km/h (1 Bft)
12.07.2013 12:55 22,8 C 46 % 1023,6 hPa 0,0 l/m 4,8 km/h (1 Bft) N 360 10,6 C 23,5 C 10,3 km/h (2 Bft)
12.07.2013 13:00 21,9 C 45 % 1023,6 hPa 0,0 l/m 4,7 km/h (1 Bft) W-NW 292 9,4 C 23,1 C 5,8 km/h (2 Bft)
12.07.2013 13:05 22,4 C 44 % 1023,6 hPa 0,0 l/m 5,3 km/h (1 Bft) W-NW 292 9,5 C 23,1 C 5,5 km/h (1 Bft)
12.07.2013 13:10 22,8 C 45 % 1023,6 hPa 0,0 l/m 4,7 km/h (1 Bft) W 270 10,2 C 23,1 C 6,4 km/h (2 Bft)
12.07.2013 13:15 22,8 C 45 % 1023,6 hPa 0,0 l/m 4,7 km/h (1 Bft) W-NW 292 10,2 C 23,7 C 3,9 km/h (1 Bft)
12.07.2013 13:20 20,8 C 48 % 1023,6 hPa 0,0 l/m 4,3 km/h (1 Bft) O 90 9,4 C 23,9 C 3,5 km/h (1 Bft)
12.07.2013 13:25 19,9 C 49 % 1023,8 hPa 0,0 l/m 4,5 km/h (1 Bft) NW 315 8,9 C 22,7 C 8,2 km/h (2 Bft)
12.07.2013 13:30 22,3 C 45 % 1023,8 hPa 0,0 l/m 4,3 km/h (1 Bft) N 360 9,8 C 22,7 C 4,0 km/h (1 Bft)
12.07.2013 13:35 22,5 C 46 % 1023,8 hPa 0,0 l/m 4,8 km/h (1 Bft) W-NW 292 10,3 C 23,0 C 7,2 km/h (2 Bft)
12.07.2013 13:40 22,6 C 44 % 1023,8 hPa 0,0 l/m 5,1 km/h (1 Bft) N 360 9,7 C 23,4 C 8,5 km/h (2 Bft)
12.07.2013 13:45 21,2 C 45 % 1023,8 hPa 0,0 l/m 6,0 km/h (2 Bft) N 360 8,8 C 23,3 C 10,5 km/h (2 Bft)
12.07.2013 13:50 19,9 C 49 % 1023,8 hPa 0,0 l/m 6,1 km/h (2 Bft) N-NW 337 8,9 C 21,9 C 7,4 km/h (2 Bft)
12.07.2013 13:55 21,2 C 49 % 1023,8 hPa 0,0 l/m 4,7 km/h (1 Bft) N-NO 22 10,1 C 21,7 C 4,8 km/h (1 Bft)
12.07.2013 14:00 23,0 C 44 % 1023,8 hPa 0,0 l/m 3,4 km/h (1 Bft) W 270 10,1 C 23,2 C 4,0 km/h (1 Bft)
12.07.2013 14:05 23,2 C 43 % 1023,6 hPa 0,0 l/m 3,2 km/h (1 Bft) N-NW 337 9,9 C 23,6 C 0,0 km/h (0 Bft)
12.07.2013 14:10 23,0 C 41 % 1023,6 hPa 0,0 l/m 4,0 km/h (1 Bft) N 360 9,0 C 24,5 C 10,5 km/h (2 Bft)
12.07.2013 14:13 22,4 C 48 % 1023,6 hPa 0,0 l/m 4,7 km/h (1 Bft) NO 45 10,8 C 24,2 C 5,1 km/h (1 Bft)
12.07.2013 14:15 22,4 C 48 % 1023,6 hPa 0,0 l/m 4,7 km/h (1 Bft) NO 45 10,8 C 24,2 C 5,1 km/h (1 Bft)
12.07.2013 14:20 20,5 C 49 % 1023,6 hPa 0,0 l/m 4,2 km/h (1 Bft) SO 135 9,4 C 23,4 C 3,4 km/h (1 Bft)
12.07.2013 14:25 21,7 C 48 % 1023,8 hPa 0,0 l/m 3,1 km/h (1 Bft) N-NW 337 10,2 C 23,2 C 5,5 km/h (1 Bft)
12.07.2013 14:30 22,1 C 47 % 1023,8 hPa 0,0 l/m 3,4 km/h (1 Bft) N 360 10,3 C 23,8 C 3,4 km/h (1 Bft)
12.07.2013 14:35 23,3 C 45 % 1023,8 hPa 0,0 l/m 3,2 km/h (1 Bft) W-NW 292 10,7 C 24,5 C 3,5 km/h (1 Bft)
12.07.2013 14:40 23,6 C 43 % 1023,8 hPa 0,0 l/m 3,5 km/h (1 Bft) W-NW 292 10,3 C 24,8 C 7,7 km/h (2 Bft)
12.07.2013 14:45 22,4 C 43 % 1023,6 hPa 0,0 l/m 4,3 km/h (1 Bft) W-NW 292 9,2 C 24,7 C 5,3 km/h (1 Bft)
12.07.2013 14:50 23,0 C 41 % 1023,6 hPa 0,0 l/m 4,2 km/h (1 Bft) W-NW 292 9,0 C 24,6 C 4,2 km/h (1 Bft)
12.07.2013 14:55 23,6 C 40 % 1023,6 hPa 0,0 l/m 4,0 km/h (1 Bft) SW 225 9,2 C 24,5 C 7,7 km/h (2 Bft)
12.07.2013 15:00 23,4 C 40 % 1023,6 hPa 0,0 l/m 4,3 km/h (1 Bft) O-SO 112 9,0 C 24,5 C 3,1 km/h (1 Bft)
12.07.2013 15:05 23,8 C 41 % 1023,7 hPa 0,0 l/m 4,0 km/h (1 Bft) NW 315 9,7 C 24,9 C 2,6 km/h (1 Bft)
12.07.2013 15:10 23,8 C 41 % 1023,7 hPa 0,0 l/m 3,1 km/h (1 Bft) O-SO 112 9,7 C 25,5 C 7,1 km/h (2 Bft)
12.07.2013 15:15 22,7 C 42 % 1023,7 hPa 0,0 l/m 3,9 km/h (1 Bft) NW 315 9,1 C 25,5 C 8,7 km/h (2 Bft)
12.07.2013 15:20 22,4 C 43 % 1023,7 hPa 0,0 l/m 4,8 km/h (1 Bft) N-NO 22 9,2 C 25,0 C 1,6 km/h (1 Bft)
12.07.2013 15:25 23,0 C 42 % 1023,6 hPa 0,0 l/m 4,2 km/h (1 Bft) N 360 9,4 C 25,1 C 2,3 km/h (1 Bft)
12.07.2013 15:30 22,6 C 41 % 1023,6 hPa 0,0 l/m 3,2 km/h (1 Bft) O 90 8,7 C 25,5 C 3,1 km/h (1 Bft)
12.07.2013 15:35 23,1 C 42 % 1023,6 hPa 0,0 l/m 3,5 km/h (1 Bft) NW 315 9,5 C 25,9 C 6,8 km/h (2 Bft)
12.07.2013 15:40 23,7 C 41 % 1023,6 hPa 0,0 l/m 4,8 km/h (1 Bft) W 270 9,7 C 25,3 C 8,4 km/h (2 Bft)
12.07.2013 15:45 23,4 C 39 % 1023,6 hPa 0,0 l/m 5,1 km/h (1 Bft) W 270 8,6 C 25,1 C 4,2 km/h (1 Bft)
12.07.2013 15:50 22,8 C 43 % 1023,6 hPa 0,0 l/m 4,8 km/h (1 Bft) W 270 9,6 C 24,9 C 6,8 km/h (2 Bft)
12.07.2013 15:55 23,1 C 40 % 1023,6 hPa 0,0 l/m 4,8 km/h (1 Bft) W-NW 292 8,8 C 24,7 C 6,4 km/h (2 Bft)
12.07.2013 16:00 23,9 C 41 % 1023,6 hPa 0,0 l/m 3,7 km/h (1 Bft) S 180 9,8 C 25,2 C 3,1 km/h (1 Bft)
12.07.2013 16:05 23,6 C 40 % 1023,7 hPa 0,0 l/m 3,5 km/h (1 Bft) S-SO 157 9,2 C 25,6 C 1,8 km/h (1 Bft)
12.07.2013 16:10 23,8 C 40 % 1023,7 hPa 0,0 l/m 3,2 km/h (1 Bft) S-SW 202 9,4 C 26,4 C 8,0 km/h (2 Bft)
12.07.2013 16:15 24,0 C 39 % 1023,7 hPa 0,0 l/m 3,2 km/h (1 Bft) W-SW 247 9,2 C 26,6 C 9,7 km/h (2 Bft)
12.07.2013 16:20 23,4 C 37 % 1023,7 hPa 0,0 l/m 5,6 km/h (1 Bft) W-NW 292 7,9 C 26,0 C 10,8 km/h (2 Bft)
12.07.2013 16:25 23,2 C 39 % 1023,7 hPa 0,0 l/m 5,5 km/h (1 Bft) W-NW 292 8,5 C 25,8 C 9,3 km/h (2 Bft)
12.07.2013 16:30 23,1 C 40 % 1023,7 hPa 0,0 l/m 4,2 km/h (1 Bft) S-SW 202 8,8 C 26,0 C 6,9 km/h (2 Bft)
12.07.2013 16:35 23,3 C 39 % 1023,7 hPa 0,0 l/m 3,7 km/h (1 Bft) S-SW 202 8,6 C 26,4 C 5,8 km/h (2 Bft)
12.07.2013 16:40 23,3 C 40 % 1023,7 hPa 0,0 l/m 3,4 km/h (1 Bft) O 90 8,9 C 26,6 C 1,8 km/h (1 Bft)
12.07.2013 16:45 22,7 C 41 % 1023,4 hPa 0,0 l/m 4,0 km/h (1 Bft) W-NW 292 8,8 C 26,7 C 4,8 km/h (1 Bft)
12.07.2013 16:50 22,3 C 42 % 1023,4 hPa 0,0 l/m 5,0 km/h (1 Bft) W 270 8,8 C 26,0 C 4,5 km/h (1 Bft)
12.07.2013 16:55 21,9 C 41 % 1023,4 hPa 0,0 l/m 3,7 km/h (1 Bft) N-NO 22 8,0 C 26,6 C 2,1 km/h (1 Bft)
12.07.2013 17:00 21,4 C 43 % 1023,4 hPa 0,0 l/m 1,3 km/h (1 Bft) W-NW 292 8,3 C 27,5 C 3,1 km/h (1 Bft)
12.07.2013 17:05 21,4 C 45 % 1023,6 hPa 0,0 l/m 2,9 km/h (1 Bft) W 270 9,0 C 27,6 C 6,6 km/h (2 Bft)
12.07.2013 17:10 21,2 C 45 % 1023,6 hPa 0,0 l/m 4,2 km/h (1 Bft) SW 225 8,8 C 27,2 C 10,3 km/h (2 Bft)
12.07.2013 17:15 21,0 C 45 % 1023,6 hPa 0,0 l/m 4,3 km/h (1 Bft) S-SW 202 8,6 C 26,5 C 3,4 km/h (1 Bft)
12.07.2013 17:20 20,6 C 45 % 1023,6 hPa 0,0 l/m 4,7 km/h (1 Bft) NW 315 8,2 C 26,4 C 1,8 km/h (1 Bft)
12.07.2013 17:25 20,5 C 44 % 1023,2 hPa 0,0 l/m 3,4 km/h (1 Bft) O 90 7,8 C 27,2 C 5,0 km/h (1 Bft)
12.07.2013 17:30 20,8 C 46 % 1023,2 hPa 0,0 l/m 3,2 km/h (1 Bft) W 270 8,8 C 27,1 C 7,7 km/h (2 Bft)
12.07.2013 17:35 20,7 C 46 % 1023,2 hPa 0,0 l/m 4,0 km/h (1 Bft) W 270 8,7 C 26,7 C 2,4 km/h (1 Bft)
12.07.2013 17:40 20,8 C 46 % 1023,2 hPa 0,0 l/m 3,7 km/h (1 Bft) NW 315 8,8 C 26,8 C 4,8 km/h (1 Bft)
12.07.2013 17:45 20,4 C 46 % 1023,2 hPa 0,0 l/m 3,4 km/h (1 Bft) N-NW 337 8,4 C 26,4 C 1,6 km/h (1 Bft)
12.07.2013 17:50 20,4 C 46 % 1023,2 hPa 0,0 l/m 4,2 km/h (1 Bft) W-SW 247 8,4 C 26,5 C 8,7 km/h (2 Bft)
12.07.2013 17:55 20,4 C 46 % 1023,2 hPa 0,0 l/m 3,5 km/h (1 Bft) S-SW 202 8,4 C 26,0 C 2,4 km/h (1 Bft)
12.07.2013 18:00 20,2 C 47 % 1023,2 hPa 0,0 l/m 3,5 km/h (1 Bft) S-SO 157 8,5 C 26,3 C 3,5 km/h (1 Bft)
12.07.2013 18:05 20,2 C 46 % 1023,2 hPa 0,0 l/m 3,4 km/h (1 Bft) NW 315 8,2 C 26,5 C 5,8 km/h (2 Bft)
12.07.2013 18:10 20,3 C 46 % 1023,2 hPa 0,0 l/m 3,9 km/h (1 Bft) W-NW 292 8,3 C 26,0 C 5,0 km/h (1 Bft)
12.07.2013 18:15 20,3 C 47 % 1023,2 hPa 0,0 l/m 3,5 km/h (1 Bft) N-NO 22 8,6 C 26,0 C 2,4 km/h (1 Bft)
12.07.2013 18:20 20,3 C 45 % 1023,2 hPa 0,0 l/m 2,9 km/h (1 Bft) N 360 8,0 C 26,2 C 6,3 km/h (2 Bft)
12.07.2013 18:25 20,4 C 46 % 1023,1 hPa 0,0 l/m 3,2 km/h (1 Bft) W 270 8,4 C 25,9 C 7,6 km/h (2 Bft)
12.07.2013 18:30 20,2 C 45 % 1023,1 hPa 0,0 l/m 4,2 km/h (1 Bft) NW 315 7,9 C 24,8 C 5,3 km/h (1 Bft)
12.07.2013 18:35 20,1 C 45 % 1023,1 hPa 0,0 l/m 3,7 km/h (1 Bft) N-NO 22 7,8 C 25,0 C 2,6 km/h (1 Bft)
12.07.2013 18:40 20,1 C 46 % 1023,1 hPa 0,0 l/m 2,9 km/h (1 Bft) W 270 8,1 C 25,3 C 3,9 km/h (1 Bft)
12.07.2013 18:45 20,3 C 46 % 1022,7 hPa 0,0 l/m 2,6 km/h (1 Bft) N-NO 22 8,3 C 25,4 C 2,6 km/h (1 Bft)
12.07.2013 18:50 20,1 C 46 % 1022,7 hPa 0,0 l/m 3,4 km/h (1 Bft) W-SW 247 8,1 C 25,3 C 5,3 km/h (1 Bft)
12.07.2013 18:55 20,2 C 46 % 1022,7 hPa 0,0 l/m 3,9 km/h (1 Bft) W 270 8,2 C 24,8 C 3,9 km/h (1 Bft)
12.07.2013 19:00 20,0 C 46 % 1022,7 hPa 0,0 l/m 3,4 km/h (1 Bft) N 360 8,0 C 24,8 C 1,8 km/h (1 Bft)
12.07.2013 19:05 19,9 C 46 % 1022,4 hPa 0,0 l/m 2,9 km/h (1 Bft) W 270 7,9 C 24,9 C 3,1 km/h (1 Bft)
12.07.2013 19:10 19,8 C 47 % 1022,4 hPa 0,0 l/m 3,5 km/h (1 Bft) W-NW 292 8,2 C 24,8 C 4,3 km/h (1 Bft)
12.07.2013 19:15 19,5 C 47 % 1022,4 hPa 0,0 l/m 3,4 km/h (1 Bft) W-NW 292 7,9 C 24,7 C 4,0 km/h (1 Bft)
12.07.2013 19:20 19,5 C 47 % 1022,4 hPa 0,0 l/m 2,9 km/h (1 Bft) W 270 7,9 C 24,5 C 5,6 km/h (1 Bft)
12.07.2013 19:25 19,4 C 48 % 1022,4 hPa 0,0 l/m 3,2 km/h (1 Bft) W 270 8,1 C 24,2 C 3,4 km/h (1 Bft)
12.07.2013 19:30 19,3 C 47 % 1022,4 hPa 0,0 l/m 2,6 km/h (1 Bft) W 270 7,7 C 24,2 C 2,3 km/h (1 Bft)
12.07.2013 19:35 19,3 C 48 % 1022,4 hPa 0,0 l/m 2,4 km/h (1 Bft) W-NW 292 8,0 C 23,9 C 5,3 km/h (1 Bft)
12.07.2013 19:40 19,2 C 47 % 1022,5 hPa 0,0 l/m 2,9 km/h (1 Bft) O 90 7,6 C 23,5 C 3,7 km/h (1 Bft)
12.07.2013 19:45 19,1 C 48 % 1022,5 hPa 0,0 l/m 2,3 km/h (1 Bft) O-NO 67 7,8 C 23,1 C 0,0 km/h (0 Bft)
12.07.2013 19:50 19,1 C 49 % 1022,5 hPa 0,0 l/m 1,4 km/h (1 Bft) W-SW 247 8,1 C 23,2 C 3,5 km/h (1 Bft)
12.07.2013 19:55 18,6 C 50 % 1022,5 hPa 0,0 l/m 0,3 km/h (0 Bft) N 360 8,0 C 23,2 C 1,6 km/h (1 Bft)
12.07.2013 20:00 18,4 C 51 % 1022,6 hPa 0,0 l/m 0,6 km/h (0 Bft) NO 45 8,1 C 23,0 C 1,9 km/h (1 Bft)
12.07.2013 20:05 18,2 C 51 % 1022,6 hPa 0,0 l/m 1,0 km/h (0 Bft) NW 315 7,9 C 22,5 C 2,7 km/h (1 Bft)
12.07.2013 20:10 18,0 C 51 % 1022,6 hPa 0,0 l/m 0,8 km/h (0 Bft) N-NO 22 7,7 C 22,0 C 0,0 km/h (0 Bft)
12.07.2013 20:15 17,8 C 51 % 1022,6 hPa 0,0 l/m 1,1 km/h (1 Bft) W-NW 292 7,5 C 21,4 C 2,1 km/h (1 Bft)
12.07.2013 20:20 17,6 C 53 % 1022,5 hPa 0,0 l/m 1,4 km/h (1 Bft) NO 45 7,9 C 21,0 C 2,9 km/h (1 Bft)
12.07.2013 20:25 17,5 C 53 % 1022,5 hPa 0,0 l/m 1,4 km/h (1 Bft) NO 45 7,8 C 20,4 C 0,0 km/h (0 Bft)
12.07.2013 20:30 17,3 C 53 % 1022,5 hPa 0,0 l/m 1,3 km/h (1 Bft) NO 45 7,6 C 19,9 C 2,9 km/h (1 Bft)
12.07.2013 20:35 17,0 C 54 % 1022,5 hPa 0,0 l/m 1,4 km/h (1 Bft) O 90 7,6 C 19,2 C 2,4 km/h (1 Bft)
12.07.2013 20:40 16,8 C 55 % 1022,6 hPa 0,0 l/m 1,6 km/h (1 Bft) NO 45 7,7 C 18,5 C 0,0 km/h (0 Bft)
12.07.2013 20:45 16,5 C 55 % 1022,6 hPa 0,0 l/m 1,8 km/h (1 Bft) NO 45 7,4 C 17,9 C 2,1 km/h (1 Bft)
12.07.2013 20:50 16,3 C 56 % 1022,6 hPa 0,0 l/m 1,8 km/h (1 Bft) O 90 7,5 C 17,5 C 1,6 km/h (1 Bft)
12.07.2013 20:55 16,1 C 56 % 1022,6 hPa 0,0 l/m 2,1 km/h (1 Bft) O-NO 67 7,3 C 16,5 C 1,8 km/h (1 Bft)
12.07.2013 21:00 15,7 C 59 % 1022,8 hPa 0,0 l/m 1,6 km/h (1 Bft) O-NO 67 7,7 C 15,9 C 1,6 km/h (1 Bft)
12.07.2013 21:05 15,3 C 60 % 1022,8 hPa 0,0 l/m 1,8 km/h (1 Bft) O 90 7,6 C 15,1 C 2,7 km/h (1 Bft)
12.07.2013 21:10 15,2 C 61 % 1022,8 hPa 0,0 l/m 2,4 km/h (1 Bft) O 90 7,7 C 14,7 C 3,7 km/h (1 Bft)
12.07.2013 21:15 14,9 C 62 % 1022,8 hPa 0,0 l/m 2,4 km/h (1 Bft) NO 45 7,7 C 14,2 C 0,0 km/h (0 Bft)
12.07.2013 21:20 14,4 C 64 % 1022,8 hPa 0,0 l/m 1,9 km/h (1 Bft) O-NO 67 7,7 C 13,9 C 3,1 km/h (1 Bft)
12.07.2013 21:25 14,2 C 65 % 1022,8 hPa 0,0 l/m 1,8 km/h (1 Bft) NO 45 7,7 C 13,5 C 0,0 km/h (0 Bft)
12.07.2013 21:30 14,0 C 66 % 1022,8 hPa 0,0 l/m 1,4 km/h (1 Bft) O 90 7,7 C 13,2 C 0,0 km/h (0 Bft)
12.07.2013 21:35 13,7 C 67 % 1022,8 hPa 0,0 l/m 1,1 km/h (1 Bft) O-NO 67 7,7 C 12,9 C 0,0 km/h (0 Bft)
12.07.2013 21:40 13,7 C 68 % 1022,7 hPa 0,0 l/m 1,4 km/h (1 Bft) O 90 7,9 C 12,7 C 1,8 km/h (1 Bft)
12.07.2013 21:45 13,3 C 69 % 1022,7 hPa 0,0 l/m 1,4 km/h (1 Bft) O 90 7,7 C 12,4 C 3,4 km/h (1 Bft)
12.07.2013 21:50 13,1 C 70 % 1022,7 hPa 0,0 l/m 1,3 km/h (1 Bft) O 90 7,8 C 12,3 C 2,6 km/h (1 Bft)
12.07.2013 21:55 12,8 C 73 % 1022,7 hPa 0,0 l/m 2,4 km/h (1 Bft) NO 45 8,1 C 12,2 C 1,9 km/h (1 Bft)
12.07.2013 22:00 12,7 C 74 % 1022,9 hPa 0,0 l/m 2,9 km/h (1 Bft) O-NO 67 8,2 C 12,0 C 6,3 km/h (2 Bft)
12.07.2013 22:05 12,6 C 74 % 1022,9 hPa 0,0 l/m 3,1 km/h (1 Bft) NO 45 8,1 C 11,9 C 4,7 km/h (1 Bft)
12.07.2013 22:10 12,6 C 74 % 1022,9 hPa 0,0 l/m 3,5 km/h (1 Bft) O 90 8,1 C 11,8 C 2,9 km/h (1 Bft)
12.07.2013 22:15 12,4 C 75 % 1022,9 hPa 0,0 l/m 3,7 km/h (1 Bft) NO 45 8,1 C 11,7 C 4,3 km/h (1 Bft)
12.07.2013 22:20 12,1 C 76 % 1023,0 hPa 0,0 l/m 3,2 km/h (1 Bft) O 90 8,0 C 11,6 C 1,9 km/h (1 Bft)
12.07.2013 22:25 11,9 C 76 % 1023,0 hPa 0,0 l/m 2,4 km/h (1 Bft) O 90 7,8 C 11,3 C 3,5 km/h (1 Bft)
12.07.2013 22:30 12,0 C 76 % 1023,0 hPa 0,0 l/m 1,8 km/h (1 Bft) O 90 7,9 C 11,2 C 3,4 km/h (1 Bft)
12.07.2013 22:35 12,0 C 76 % 1023,0 hPa 0,0 l/m 1,9 km/h (1 Bft) NO 45 7,9 C 11,1 C 2,3 km/h (1 Bft)
12.07.2013 22:40 11,6 C 76 % 1023,0 hPa 0,0 l/m 1,9 km/h (1 Bft) O 90 7,5 C 11,0 C 3,5 km/h (1 Bft)
12.07.2013 22:45 11,8 C 77 % 1023,0 hPa 0,0 l/m 2,3 km/h (1 Bft) O-SO 112 7,9 C 10,9 C 2,1 km/h (1 Bft)
12.07.2013 22:50 11,8 C 77 % 1023,0 hPa 0,0 l/m 2,3 km/h (1 Bft) O-SO 112 7,9 C 10,9 C 0,0 km/h (0 Bft)
12.07.2013 22:55 11,4 C 78 % 1023,0 hPa 0,0 l/m 2,1 km/h (1 Bft) O 90 7,7 C 10,8 C 2,1 km/h (1 Bft)
12.07.2013 23:00 11,5 C 78 % 1022,5 hPa 0,0 l/m 1,6 km/h (1 Bft) O 90 7,8 C 10,7 C 2,3 km/h (1 Bft)
12.07.2013 23:05 11,6 C 78 % 1022,5 hPa 0,0 l/m 2,4 km/h (1 Bft) NO 45 7,9 C 10,5 C 4,7 km/h (1 Bft)
12.07.2013 23:10 11,5 C 78 % 1022,5 hPa 0,0 l/m 3,5 km/h (1 Bft) NO 45 7,8 C 10,7 C 3,7 km/h (1 Bft)
12.07.2013 23:15 11,4 C 79 % 1022,5 hPa 0,0 l/m 3,5 km/h (1 Bft) O-NO 67 7,9 C 10,7 C 5,3 km/h (1 Bft)
12.07.2013 23:20 11,4 C 79 % 1022,6 hPa 0,0 l/m 2,4 km/h (1 Bft) O 90 7,9 C 10,5 C 4,3 km/h (1 Bft)
12.07.2013 23:25 11,4 C 79 % 1022,6 hPa 0,0 l/m 3,2 km/h (1 Bft) SO 135 7,9 C 10,5 C 4,3 km/h (1 Bft)
12.07.2013 23:30 11,3 C 79 % 1022,6 hPa 0,0 l/m 4,3 km/h (1 Bft) NO 45 7,8 C 10,6 C 4,3 km/h (1 Bft)
12.07.2013 23:35 11,1 C 79 % 1022,6 hPa 0,0 l/m 4,3 km/h (1 Bft) O-NO 67 7,6 C 10,5 C 4,3 km/h (1 Bft)
12.07.2013 23:40 11,1 C 80 % 1022,8 hPa 0,0 l/m 4,3 km/h (1 Bft) O 90 7,8 C 10,5 C 4,0 km/h (1 Bft)
12.07.2013 23:45 10,9 C 80 % 1022,8 hPa 0,0 l/m 3,7 km/h (1 Bft) O-SO 112 7,6 C 10,4 C 4,0 km/h (1 Bft)
12.07.2013 23:50 10,8 C 81 % 1022,8 hPa 0,0 l/m 3,5 km/h (1 Bft) O 90 7,7 C 10,3 C 3,2 km/h (1 Bft)
12.07.2013 23:55 10,6 C 82 % 1022,8 hPa 0,0 l/m 3,2 km/h (1 Bft) O-SO 112 7,7 C 10,2 C 2,4 km/h (1 Bft)
_ Min-Zeit 03:45 16:20 05:00 - 07:55 - - 03:45 03:55 22:50
Minimum _ 7,0 C 37 % 1021,5 hPa - 0,0 km/h (0 Bft) - - 5,3 C 6,7 C 0,0 km/h (0 Bft)
_ Max-Zeit 16:15 06:25 14:40 23:55 10:15 - - 07:45 17:05 10:10
Maximum _ 24,0 C 90 % 1023,8 hPa 0,0 l/m 6,9 km/h
N (2 Bft)
- - 12,8 C 27,6 C 15,1 km/h
N (3 Bft)
Durchschnitt _ 16,0 C 63 % 1022,7 hPa #0,0 l/m 2,5 km/h (1 Bft) W-NW - 8,2 C 16,8 C 3,2 km/h (1 Bft)